Back to catalog

YAOGAN-30 AF

AliveMilitaryVLEO
NORAD 49029·PAYLOAD·🇨🇳 China

Launched Jul 19, 2021 from Xichang Satellite Launch Center

Loading…

Next Passes (next 24 hours)

TLE

FreshSource: Space-Track

Epoch: Sep 14, 2026, 15:04 UTC

1 49029U 21065D   26257.62834797  .00001728  00000-0  12788-3 0  9993
2 49029  34.9940  87.3484 0004547 323.9710  36.0691 15.03030708282121

Track YAOGAN-30 AF in real time with AllMySat

Download on the App Store